User: anonymous   Login
Location: Oregon Trail
(41.1872°N, 102.0741°W)
Time: 08:09:57
(UTC+00:00)
Language:

Sich 1 - Orbit

View from above orbital plane
View from above orbital plane
View from above satellite
View from above satellite

Ground track
Ground track

The orbit data is extracted from the following two-line orbital elements,

1 23657U 95046A   20025.56159675 +.00000167 +00000-0 +16140-4 0  9990
2 23657 082.5263 085.9224 0022592 164.9759 195.2134 14.86123865318609
Epoch (UTC): 25 January 2020 13:28:41
Eccentricity: 0.0022592
inclination: 82.5263°
perigee height: 594 km
apogee height: 626 km
right ascension of ascending node: 85.9224°
argument of perigee: 164.9759°
revolutions per day: 14.86123865
mean anomaly at epoch: 195.2134°
orbit number at epoch: 31860

The dashed part of the orbit path shows where the satellite is in the earth's shadow,  

DLR